Wind_Speed
6 6 6 6 6 7 7 7 8 9 10 11 11 12 13 13 15 16 16 17 17 18 19 19 19 18 18 18 19 19 19 20 20 19 19 19 20 20 20 21 21 21 21 21
6 6 6 6 6 6 6 7 8 9 10 11 11 12 13 13 13 14 15 16 18 18 19 19 19 19 18 19 19 20 20 19 19 20 19 19 19 19 19 21 20 20 21 21
5 5 5 5 5 5 6 6 7 9 10 10 10 10 11 12 13 13 14 15 16 18 19 18 18 18 18 19 19 19 19 19 19 19 19 19 18 18 18 18 18 20 20 20
4 5 5 4 5 5 5 6 6 7 8 9 9 9 11 11 12 13 14 14 14 15 17 17 16 16 17 17 18 18 18 17 17 17 18 18 18 18 18 18 18 18 19 20
4 4 3 3 4 4 5 5 5 6 7 8 8 8 10 10 10 11 12 13 13 13 14 15 15 14 15 16 16 16 16 15 15 15 16 17 17 17 17 17 17 18 19 20
4 4 3 3 4 4 5 5 5 5 6 7 8 8 9 10 10 10 10 11 11 12 13 14 14 14 14 14 14 14 14 14 14 15 15 15 16 16 17 17 18 19 20 20
5 5 4 3 3 4 4 4 4 4 5 7 9 9 10 10 10 10 10 11 10 10 11 12 12 13 13 13 13 13 14 14 14 14 15 16 16 17 17 19 19 20 20 19
5 5 5 4 3 4 4 4 4 5 6 7 9 9 10 10 10 10 10 9 10 10 10 10 11 12 12 13 13 13 13 13 14 14 15 16 17 17 18 19 19 18 17 16
5 6 6 5 4 4 4 4 5 6 7 7 8 10 10 10 10 9 9 9 9 9 9 9 9 10 11 13 14 14 13 13 14 14 15 16 17 18 18 17 17 16 16 16
6 6 6 6 5 4 4 5 5 6 7 7 8 9 9 9 9 9 8 9 9 8 8 8 9 10 11 12 13 13 13 13 14 15 15 16 17 17 17 16 15 14 15 16
6 6 6 5 5 6 6 6 6 6 7 7 8 9 10 10 9 9 8 8 8 7 7 8 9 9 10 11 12 12 14 15 15 16 15 15 16 16 15 14 14 15 16 17
7 6 6 6 6 6 7 7 7 8 9 9 9 11 10 10 9 8 7 7 7 7 7 8 8 9 10 11 12 12 12 13 13 13 14 15 15 15 14 14 15 16 17 17
6 6 6 7 7 7 7 7 7 8 9 9 9 10 11 10 9 9 8 8 8 8 8 9 9 9 10 10 10 10 12 12 12 12 13 14 14 12 12 14 15 15 16 16
8 7 8 8 8 8 8 8 8 9 9 10 9 10 10 10 9 10 9 9 9 9 9 9 9 9 9 9 9 10 11 11 12 12 12 12 11 11 12 14 15 15 15 15
10 9 9 9 9 9 9 9 9 9 10 10 10 10 10 10 10 10 10 10 10 9 9 9 9 8 9 9 9 10 11 11 11 11 11 11 10 11 13 13 14 14 15 16
10 9 9 10 10 10 11 11 10 10 11 11 11 11 10 10 10 10 10 10 9 10 9 9 8 8 8 9 9 10 10 11 11 11 11 10 10 12 13 13 14 15 15 16
12 11 11 11 11 11 11 11 11 11 11 11 11 12 11 11 10 10 9 9 9 9 9 9 9 9 8 9 9 10 10 11 11 11 11 11 11 12 13 14 14 15 15 16
13 13 12 12 12 12 12 12 12 12 11 12 12 11 11 10 10 9 9 9 9 9 9 9 9 9 9 9 10 11 11 11 11 11 11 11 11 12 13 14 14 14 15 15
14 13 13 13 13 13 13 12 12 12 12 12 12 11 11 10 10 10 10 10 10 10 10 10 10 10 10 10 10 11 11 11 11 11 11 11 12 12 13 13 13 14 14 14
15 15 14 14 14 14 14 13 12 12 13 12 12 11 11 10 11 11 12 11 11 11 11 10 11 11 11 11 11 11 12 12 12 11 11 12 12 12 12 12 13 13 13 13
17 16 16 16 15 15 15 14 13 13 14 13 13 13 13 12 12 13 12 12 12 12 11 12 11 11 12 12 12 12 12 12 12 12 12 13 13 12 12 13 13 13 13 13
18 18 18 17 16 17 16 15 15 15 15 14 14 14 15 14 14 14 14 14 13 12 12 12 12 12 12 12 13 13 13 13 13 12 12 12 12 12 12 13 12 11 12 13
19 19 19 19 19 18 18 17 17 16 16 16 16 15 15 16 15 15 15 14 14 13 13 13 13 13 13 13 14 14 14 13 13 12 12 12 13 12 12 12 11 12 12 13
21 21 21 20 20 20 19 19 19 18 18 18 18 17 17 16 16 15 15 15 15 14 14 14 14 14 14 14 14 14 14 14 14 13 13 13 12 12 12 12 12 12 13 14
23 22 22 22 22 22 22 22 21 20 20 19 19 19 19 18 18 18 17 16 16 15 15 15 15 16 15 15 15 14 14 14 14 13 13 13 12 12 12 12 12 13 14 14
24 23 23 24 24 24 23 23 23 22 21 21 21 21 20 20 20 19 18 17 16 16 16 16 16 17 16 15 15 14 15 15 14 13 13 13 13 12 12 13 13 14 14 15
Wind_Direction
304 294 281 270 256 246 255 258 262 262 268 266 264 265 263 263 265 264 264 261 261 262 262 263 265 266 267 265 265 267 268 271 269 269 270 274 275 275 275 275 279 281 284 285
304 292 279 264 258 256 263 266 268 269 269 267 268 271 271 271 269 268 267 263 262 265 264 265 266 268 267 265 266 267 267 268 269 270 272 274 276 277 281 281 282 284 285 286
298 283 268 256 258 263 270 271 272 274 273 271 270 272 272 275 274 270 269 268 266 265 266 266 268 267 265 265 267 269 267 267 269 270 273 275 277 279 284 286 283 284 284 287
299 279 267 259 264 273 287 285 280 276 279 278 277 281 283 283 281 278 274 271 270 267 267 267 267 266 263 264 265 266 267 271 271 272 275 276 278 282 286 286 285 284 285 288
299 280 262 264 274 282 289 293 288 279 283 283 282 282 284 290 292 288 281 279 274 270 267 268 266 261 260 263 263 262 265 269 275 277 278 280 282 284 287 287 287 286 288 290
299 286 272 264 271 284 293 302 301 296 298 291 283 284 290 296 297 295 296 289 282 272 269 267 264 259 258 260 261 264 266 271 275 278 282 285 286 287 287 287 289 289 289 290
306 295 290 271 269 290 299 314 320 311 303 290 289 294 292 298 296 298 298 293 287 277 270 268 266 262 258 260 261 265 269 272 277 278 281 284 286 287 287 289 290 290 292 291
303 295 293 280 274 295 300 304 302 290 284 280 294 300 300 300 298 299 298 289 287 285 282 274 269 266 263 262 261 269 271 272 277 280 283 285 287 288 289 291 293 296 297 294
295 290 294 295 291 294 294 289 288 292 295 292 292 301 302 304 307 306 303 297 290 289 289 282 273 266 266 268 264 269 271 272 279 281 284 287 288 288 291 293 298 302 299 295
295 293 293 287 291 289 289 292 292 297 293 289 290 297 301 309 316 320 315 315 314 304 297 285 278 273 270 271 271 272 273 277 282 286 286 287 288 287 289 292 295 300 301 298
287 288 293 296 289 285 290 292 293 293 288 289 290 289 298 306 309 311 312 316 320 320 312 302 291 285 283 279 277 279 281 281 285 288 288 290 291 291 290 292 295 301 304 302
280 278 280 287 290 294 293 293 298 298 297 292 289 289 296 298 302 305 304 306 313 317 313 305 298 295 291 285 282 284 289 289 292 295 295 297 295 292 292 297 301 305 307 308
272 269 280 289 294 295 291 296 301 298 297 296 292 289 293 294 300 307 303 300 303 310 312 307 301 298 296 291 288 288 290 291 295 299 300 300 300 299 299 303 307 308 309 309
268 269 272 275 284 293 294 298 304 304 302 300 296 289 289 294 299 304 303 302 304 305 308 308 309 300 295 294 293 294 295 295 298 300 303 304 304 304 305 310 312 310 310 311
268 271 272 274 280 288 292 294 298 302 300 297 294 292 292 291 293 295 298 301 303 305 306 306 308 301 294 296 296 297 296 296 298 299 302 304 307 310 310 310 309 310 311 311
272 274 279 281 283 289 292 295 296 298 296 294 295 296 295 293 292 293 295 299 301 303 305 304 302 303 298 298 295 300 301 299 298 300 303 304 306 311 314 313 312 313 314 314
271 275 276 280 283 287 289 294 296 298 297 296 295 299 298 296 291 293 295 300 304 304 306 304 303 306 302 299 299 302 303 302 300 299 300 299 303 309 314 316 314 312 314 318
268 272 275 276 279 283 288 292 294 296 297 297 294 295 297 300 293 290 292 296 303 305 306 305 306 308 306 305 303 304 303 302 301 301 300 298 301 307 311 315 316 315 315 317
265 268 270 272 274 279 285 291 292 294 293 295 295 296 297 297 296 294 294 297 301 302 305 304 302 305 306 307 305 302 303 301 301 302 301 302 305 309 311 313 315 316 319 322
260 263 265 267 269 275 281 284 286 289 289 289 288 292 292 289 291 293 292 292 294 297 301 302 301 299 301 303 304 303 303 303 303 303 301 302 305 308 311 311 312 316 322 324
260 263 263 263 265 270 277 281 282 281 286 287 282 283 285 284 286 290 289 287 289 292 294 296 297 298 299 300 301 304 302 303 303 304 304 304 304 306 308 309 310 316 322 326
259 261 263 261 262 266 274 277 278 279 282 284 283 280 278 279 282 287 288 287 288 288 290 292 294 296 298 297 298 301 301 301 301 301 301 303 303 302 304 304 309 318 324 326
257 259 262 261 261 265 269 271 275 278 279 281 280 281 280 280 281 283 285 285 285 284 288 293 295 296 297 296 297 299 299 299 299 298 297 299 301 301 303 305 311 316 319 323
258 259 260 260 260 263 268 270 273 275 275 278 279 278 280 279 278 281 283 284 284 283 287 291 295 297 298 294 292 294 295 297 297 295 295 297 300 302 303 305 311 315 317 320
257 259 259 259 260 264 267 270 272 273 273 273 275 277 278 278 278 279 281 282 281 283 287 290 293 295 296 293 291 292 292 293 294 292 293 294 296 300 301 304 309 314 316 318
257 257 258 259 262 265 268 270 272 272 271 271 273 274 275 275 276 277 279 280 280 281 284 288 290 292 293 292 290 289 290 291 290 289 291 294 296 298 299 302 309 314 315 316
Height
5831 5831 5831 5831 5831 5831 5831 5832 5832 5833 5832 5832 5832 5832 5832 5832 5831 5831 5831 5831 5832 5832 5832 5832 5832 5833 5833 5833 5833 5833 5833 5833 5833 5832 5832 5831 5830 5829 5828 5827 5826 5824 5823 5822
5830 5830 5829 5828 5828 5829 5829 5830 5830 5830 5830 5830 5830 5829 5829 5828 5828 5828 5828 5827 5828 5828 5828 5827 5828 5828 5828 5828 5829 5828 5828 5828 5827 5827 5827 5826 5825 5824 5823 5822 5820 5819 5819 5817
5828 5829 5827 5827 5827 5827 5828 5828 5829 5828 5828 5827 5828 5827 5827 5826 5825 5825 5824 5824 5823 5823 5823 5823 5823 5823 5823 5823 5824 5823 5823 5823 5822 5822 5822 5821 5820 5820 5819 5817 5816 5815 5814 5812
5827 5826 5826 5826 5826 5826 5827 5827 5827 5826 5826 5826 5827 5826 5824 5823 5823 5822 5821 5820 5819 5819 5818 5818 5818 5818 5819 5819 5819 5819 5819 5818 5818 5818 5817 5817 5816 5815 5814 5813 5811 5810 5809 5807
5826 5825 5825 5825 5825 5825 5825 5825 5825 5825 5825 5825 5824 5824 5823 5821 5820 5819 5818 5817 5816 5815 5815 5814 5814 5814 5814 5814 5815 5815 5815 5814 5814 5814 5813 5812 5812 5810 5809 5808 5807 5805 5804 5802
5826 5825 5824 5824 5824 5824 5824 5824 5824 5824 5824 5824 5823 5822 5821 5819 5818 5817 5815 5814 5812 5812 5811 5811 5810 5811 5811 5811 5811 5811 5811 5811 5810 5810 5809 5808 5807 5806 5805 5803 5802 5800 5799 5797
5825 5825 5824 5824 5823 5823 5823 5824 5824 5824 5824 5823 5821 5820 5819 5817 5816 5814 5813 5811 5810 5809 5808 5808 5807 5807 5808 5808 5807 5807 5807 5807 5807 5806 5805 5804 5803 5802 5801 5799 5797 5795 5793 5791
5825 5825 5824 5823 5823 5823 5822 5823 5824 5824 5823 5822 5819 5818 5817 5815 5814 5812 5810 5809 5808 5807 5806 5805 5805 5804 5804 5805 5804 5804 5804 5803 5803 5802 5801 5800 5799 5797 5796 5794 5792 5790 5788 5786
5825 5824 5823 5822 5821 5821 5821 5821 5821 5821 5820 5819 5818 5817 5815 5813 5812 5810 5808 5807 5806 5805 5804 5803 5802 5802 5802 5801 5801 5801 5800 5800 5799 5798 5797 5795 5794 5792 5791 5789 5787 5785 5783 5781
5823 5822 5822 5821 5820 5820 5820 5819 5819 5819 5818 5818 5817 5815 5814 5811 5810 5808 5806 5805 5804 5803 5801 5800 5799 5799 5799 5798 5798 5797 5797 5796 5795 5794 5793 5792 5790 5788 5787 5785 5783 5781 5779 5777
5821 5821 5821 5820 5819 5819 5818 5818 5817 5816 5816 5816 5815 5815 5811 5809 5808 5806 5805 5803 5802 5801 5800 5798 5797 5796 5796 5795 5795 5794 5793 5793 5792 5791 5789 5788 5786 5784 5782 5781 5779 5777 5775 5772
5819 5819 5818 5818 5817 5817 5816 5815 5815 5815 5813 5812 5812 5814 5808 5807 5805 5804 5803 5802 5801 5800 5798 5797 5795 5794 5794 5793 5792 5791 5790 5789 5788 5787 5785 5784 5782 5780 5779 5777 5775 5773 5770 5768
5817 5817 5817 5817 5818 5816 5814 5813 5812 5812 5811 5810 5809 5811 5806 5804 5803 5802 5801 5800 5799 5798 5796 5795 5793 5792 5791 5790 5789 5788 5787 5786 5785 5783 5782 5780 5778 5777 5775 5773 5771 5769 5767 5765
5815 5815 5816 5816 5815 5813 5812 5811 5810 5809 5808 5807 5806 5805 5803 5801 5800 5799 5798 5797 5796 5795 5794 5792 5791 5790 5789 5788 5787 5786 5784 5783 5782 5780 5779 5777 5775 5774 5772 5770 5768 5765 5764 5761
5813 5813 5812 5812 5811 5811 5810 5809 5808 5806 5805 5804 5803 5801 5800 5799 5798 5797 5796 5794 5793 5792 5791 5790 5789 5788 5786 5785 5784 5783 5782 5780 5779 5777 5776 5774 5773 5771 5769 5767 5765 5762 5760 5758
5810 5810 5810 5809 5808 5808 5807 5806 5804 5803 5802 5801 5799 5798 5797 5796 5795 5794 5793 5792 5791 5790 5789 5788 5787 5785 5784 5783 5782 5780 5779 5777 5776 5775 5773 5771 5770 5768 5766 5764 5761 5759 5757 5755
5807 5807 5807 5806 5805 5804 5804 5803 5802 5800 5799 5798 5796 5796 5794 5793 5792 5791 5791 5790 5789 5788 5787 5786 5784 5783 5782 5781 5779 5778 5776 5775 5773 5772 5770 5769 5767 5765 5763 5761 5758 5756 5754 5752
5803 5803 5803 5803 5803 5802 5803 5800 5799 5797 5796 5794 5793 5792 5791 5790 5790 5789 5788 5787 5787 5785 5784 5783 5782 5781 5780 5778 5777 5775 5773 5772 5770 5769 5767 5766 5764 5763 5761 5758 5756 5754 5751 5749
5799 5799 5799 5799 5799 5798 5797 5796 5795 5794 5793 5791 5790 5789 5788 5788 5787 5786 5786 5785 5784 5783 5782 5781 5780 5779 5777 5776 5774 5772 5771 5769 5767 5766 5764 5763 5762 5760 5758 5756 5754 5751 5749 5746
5794 5794 5795 5795 5795 5794 5794 5793 5792 5792 5790 5789 5787 5787 5786 5786 5785 5785 5783 5782 5781 5780 5779 5778 5777 5776 5774 5773 5771 5770 5768 5766 5765 5763 5761 5760 5758 5757 5755 5753 5751 5749 5746 5744
5789 5789 5790 5790 5790 5789 5789 5788 5788 5789 5788 5785 5784 5783 5783 5782 5782 5782 5780 5779 5778 5777 5776 5775 5774 5773 5771 5770 5768 5767 5765 5763 5762 5760 5758 5757 5755 5754 5752 5750 5748 5746 5744 5741
5783 5784 5784 5785 5785 5786 5784 5784 5784 5784 5782 5781 5780 5780 5779 5779 5778 5777 5776 5776 5775 5773 5772 5771 5770 5769 5768 5766 5765 5763 5762 5760 5758 5757 5755 5754 5752 5751 5749 5747 5745 5743 5741 5739
5777 5778 5778 5779 5781 5779 5778 5778 5778 5778 5777 5777 5776 5775 5775 5774 5774 5773 5773 5772 5771 5770 5769 5768 5767 5765 5764 5763 5761 5760 5758 5757 5755 5753 5752 5750 5749 5747 5746 5744 5742 5740 5738 5736
5770 5771 5772 5772 5772 5773 5772 5772 5772 5772 5772 5771 5771 5771 5770 5770 5770 5769 5768 5767 5767 5766 5765 5764 5763 5761 5760 5758 5757 5756 5754 5753 5751 5750 5748 5747 5746 5744 5742 5741 5739 5737 5735 5733
5763 5764 5764 5765 5765 5766 5766 5766 5766 5765 5765 5765 5765 5765 5765 5765 5764 5764 5763 5762 5762 5761 5760 5759 5758 5757 5755 5754 5753 5751 5750 5749 5747 5746 5745 5743 5742 5741 5739 5738 5736 5734 5732 5729
5755 5756 5757 5758 5758 5758 5759 5759 5759 5759 5759 5759 5759 5759 5759 5759 5758 5758 5758 5757 5757 5756 5755 5754 5753 5752 5751 5749 5748 5747 5746 5744 5743 5742 5741 5739 5738 5737 5736 5734 5732 5730 5728 5726